Lewistown, MT

2:36 PM MDT on April 25, 2017 (GMT -0600)
Lewistown Municipal

Weather History for KLWT - April, 2012

Change the Weather History Date:

Monday, April 16, 2012

  Actual Average Record
Temperature  
Mean Temperature 38 °F 42 °F  
Max Temperature 53 °F 54 °F 80 °F (1926)
Min Temperature 22 °F 29 °F -9 °F (1896)
Degree Days  
Heating Degree Days 27 24  
Month to date heating degree days 406 408  
Since 1 July heating degree days 6501 7207  
Cooling Degree Days 0 0  
Month to date cooling degree days 0 0  
Year to date cooling degree days 0 0  
Moisture  
Dew Point 27 °F    
Average Humidity 62    
Maximum Humidity 92    
Minimum Humidity 32    
Precipitation  
Precipitation 0.06 in 0.05 in 1.73 in (1927)
Month to date precipitation 1.47 0.68  
Year to date precipitation 3.42 2.68  
Snow  
Snow 0.00 in - - ()
Snow Depth 0.00 in    
Sea Level Pressure  
Sea Level Pressure 30.04 in    
Wind  
Wind Speed 6 mph (West)    
Max Wind Speed 16 mph    
Max Gust Speed 20 mph    
Visibility 10 miles    
Events Rain    
T = Trace of Precipitation, MM = Missing Value Source: NWS Daily Summary

Daily Weather History Graph

Daily Weather History Graph

Search for Another Location

Airport or City:

Trip Planner

Search our weather history database for the weather conditions in past years. The results will help you decide how hot, cold, wet, or windy it might be!

Date:

Astronomy

Apr. 16, 2012 Rise Set
Actual Time 6:27 AM MDT 8:08 PM MDT
Civil Twilight 5:55 AM MDT 8:41 PM MDT
Nautical Twilight 5:15 AM MDT 9:20 PM MDT
Astronomical Twilight 4:33 AM MDT 10:03 PM MDT
Moon 4:13 AM MDT (4/16) 3:52 PM MDT (4/16)
Length of Visible Light 14h 46m
Length of Day
13h 41m
Waning Crescent, 18% of the Moon is Illuminated
Apr 16
Waning Crescent
Apr 21
New
Apr 29
First Quarter
May 5
Full
May 12
Last Quarter

Hourly Weather History & Observations

Time (MDT) Temp. Windchill Dew Point Humidity Pressure Visibility Wind Dir Wind Speed Gust Speed Precip Events Conditions
12:54 AM 24.1 °F 18.2 °F 21.9 °F 91% 30.16 in 10.0 mi West 4.6 mph - N/A   Clear
1:54 AM 24.1 °F - 21.0 °F 88% 30.16 in 10.0 mi Calm Calm - N/A   Mostly Cloudy
2:54 AM 25.0 °F - 23.0 °F 92% 30.14 in 10.0 mi Calm Calm - N/A   Overcast
3:54 AM 25.0 °F 20.7 °F 23.0 °F 92% 30.12 in 10.0 mi ESE 3.5 mph - N/A   Overcast
4:54 AM 25.0 °F 17.1 °F 23.0 °F 92% 30.11 in 10.0 mi ESE 6.9 mph - N/A   Overcast
5:54 AM 27.0 °F 21.6 °F 23.0 °F 85% 30.09 in 10.0 mi ESE 4.6 mph - N/A   Overcast
6:54 AM 27.0 °F 21.6 °F 24.1 °F 89% 30.09 in 10.0 mi SE 4.6 mph - N/A   Overcast
7:54 AM 28.9 °F 21.9 °F 25.0 °F 85% 30.09 in 10.0 mi SE 6.9 mph - 0.00 in   Overcast
8:54 AM 32.0 °F 26.4 °F 27.0 °F 82% 30.09 in 10.0 mi ESE 5.8 mph - N/A   Overcast
9:54 AM 37.0 °F - 28.9 °F 73% 30.08 in 10.0 mi Calm Calm - N/A   Overcast
10:54 AM 41.0 °F 39.0 °F 28.9 °F 62% 30.07 in 10.0 mi NNW 3.5 mph - N/A   Overcast
11:54 AM 44.1 °F 37.1 °F 28.9 °F 55% 30.06 in 10.0 mi West 15.0 mph 20.7 mph N/A   Mostly Cloudy
12:54 PM 46.9 °F - 27.0 °F 46% 30.04 in 10.0 mi West 15.0 mph 23.0 mph N/A   Overcast
1:54 PM 48.0 °F - 26.1 °F 42% 30.02 in 10.0 mi WNW 15.0 mph 23.0 mph N/A   Overcast
2:54 PM 50.0 °F - 25.0 °F 38% 30.01 in 10.0 mi WNW 12.7 mph - N/A   Overcast
3:54 PM 51.1 °F - 24.1 °F 35% 29.99 in 10.0 mi NW 9.2 mph - N/A   Mostly Cloudy
4:54 PM 51.1 °F - 23.0 °F 33% 29.98 in 10.0 mi NW 5.8 mph - N/A   Partly Cloudy
5:54 PM 51.1 °F - 23.0 °F 33% 29.97 in 10.0 mi WSW 3.5 mph - N/A   Overcast
6:54 PM 51.1 °F - 24.1 °F 35% 29.97 in 10.0 mi Calm Calm - N/A   Overcast
7:54 PM 50.0 °F - 28.0 °F 43% 29.96 in 10.0 mi West 5.8 mph - N/A   Overcast
8:54 PM 48.0 °F - 28.9 °F 48% 29.96 in 10.0 mi North 3.5 mph - N/A   Overcast
9:54 PM 46.9 °F - 36.0 °F 66% 29.95 in 10.0 mi Variable 4.6 mph - 0.01 in Rain Light Rain
10:54 PM 44.1 °F 41.5 °F 39.0 °F 82% 29.94 in 9.0 mi SW 4.6 mph - 0.04 in Rain Light Rain
11:54 PM 44.1 °F 38.6 °F 39.0 °F 82% 29.92 in 10.0 mi WSW 10.4 mph - 0.01 in   Overcast